Terminal Aerodrome Forecast
Issued by NWS Atlanta, GA

Home | Current Version | Previous Version | Text Only | Print | Product List | Glossary On
Versions: 1 2 3 4 5 6 7 8 9 10 11 12 13 14 15 16 17 18 19 20 21 22 23 24 25 26 27 28 29 30 31 32 33 34 35 36
863
FTAK31 PAJN 031141
TAFAHN
TAF
PAHN 031141Z 0312/0412 31010KT 4SM -SHSN BR OVC025
      TEMPO 0312/0315 2SM -SHSN BR BKN015 OVC025
     FM031500 30012KT 6SM -SHSN OVC025
     FM032200 30012G20KT P6SM VCSH BKN025 OVC050
      AMD LTD TO CLD VIS AND WIND=

USA.gov is the U.S. government's official web portal to all federal, state and local government web resources and services.